Theta_e
316 322 324 323 318 312 312 315 315 316 316 313 314 315 314 314 313 312 314 312 308 310 313 313 312 312 309 308 305 303 302 301 300 300 299 298 297 296 296 296 296 295 295 295 294 294 294 293 292 292 292 291 291 291 291 291 291 291 291 292 292 292 291 291 291 291 291 291 290 290 290 290 291 291 291 292 292 292 292 293 293 293 293 294 295 295
317 322 327 324 316 311 311 312 313 312 312 312 313 314 315 315 314 313 313 310 307 310 314 313 311 311 310 309 305 301 301 301 300 300 298 297 297 296 296 296 296 295 295 294 294 294 293 293 292 292 291 291 291 291 291 291 291 291 291 291 291 291 291 291 291 291 290 290 289 289 290 290 290 291 291 291 291 292 292 293 293 293 293 294 295 295
320 324 327 319 311 310 312 312 312 312 313 314 314 314 315 316 315 314 313 311 308 309 313 313 310 309 310 309 304 301 301 301 300 300 298 297 297 296 296 296 295 295 295 294 294 294 293 293 292 292 291 291 291 291 291 291 291 291 291 291 291 290 290 290 290 290 290 289 288 289 289 289 289 289 289 289 289 290 291 292 293 293 293 293 294 295
321 327 321 312 309 310 312 313 313 312 313 315 315 314 315 315 315 315 314 311 309 309 311 311 308 308 308 307 303 301 301 300 300 300 298 297 297 296 296 296 295 295 294 294 294 293 293 293 292 292 291 291 291 291 291 291 291 291 291 290 290 290 290 289 289 289 289 288 288 288 288 288 287 287 287 287 287 288 289 291 292 292 293 293 294 294
319 319 312 309 312 313 314 315 315 314 315 318 317 314 314 315 314 315 314 312 310 311 312 309 308 310 307 305 303 301 300 299 298 298 297 297 297 296 295 295 295 295 294 294 294 293 293 292 292 292 291 291 290 290 290 290 290 290 290 290 289 289 289 289 289 288 288 287 287 287 287 287 287 286 286 285 286 286 287 289 290 291 292 293 294 294
316 312 310 313 315 315 316 318 319 318 317 318 320 318 317 315 313 314 314 312 311 312 313 309 310 312 308 305 303 300 299 299 297 296 296 297 296 295 296 295 295 294 294 294 293 293 293 292 292 292 291 290 290 290 290 290 290 290 289 289 289 289 289 289 289 288 287 287 286 285 285 285 285 285 285 284 285 285 285 286 287 289 291 292 293 293
313 309 311 316 317 316 317 317 320 319 315 316 318 317 316 312 310 312 312 311 312 313 311 308 309 310 306 304 302 299 300 300 298 296 296 296 296 295 295 295 295 294 294 294 293 293 293 292 292 292 291 290 290 290 290 290 290 289 289 289 288 289 289 288 288 287 286 285 285 284 283 283 283 283 284 284 284 284 284 284 286 288 289 290 292 292
313 310 313 316 315 317 317 317 318 317 316 318 314 312 311 309 310 312 311 310 311 310 309 308 309 308 307 306 302 299 299 299 297 297 296 295 295 295 295 295 294 294 294 293 293 293 292 292 292 291 291 290 290 290 290 290 289 289 288 288 288 288 288 288 287 286 285 284 284 283 283 283 282 283 283 283 283 283 283 284 285 286 288 289 291 292
312 313 317 317 315 316 318 318 318 316 315 317 313 309 309 310 311 311 310 310 308 307 308 309 309 308 311 309 302 298 299 298 297 297 295 294 295 295 295 295 294 294 293 293 293 293 292 292 292 291 290 290 290 290 290 289 289 288 288 288 288 288 288 287 286 285 284 283 283 283 282 282 282 282 282 282 282 283 282 283 284 285 286 288 290 291
312 313 315 317 316 315 317 317 316 316 314 311 310 310 311 311 311 309 309 308 307 308 308 309 309 308 311 309 300 298 299 298 297 296 295 294 295 295 294 295 294 293 293 293 293 292 292 292 291 291 290 290 289 290 289 289 289 288 288 288 288 288 287 286 286 285 284 283 282 282 282 281 281 281 281 281 281 282 282 282 283 284 285 287 288 290
310 308 309 312 312 312 313 310 309 312 310 307 308 310 312 313 311 309 310 308 308 312 311 309 309 308 310 308 300 299 300 299 297 296 295 294 295 295 294 294 294 293 293 293 292 292 292 292 291 291 290 289 289 289 289 289 288 288 287 287 287 287 287 286 285 284 283 283 282 282 281 281 281 281 280 281 280 281 281 282 282 282 284 285 287 288
310 310 310 309 308 309 310 309 308 308 307 307 311 311 311 315 314 312 312 309 310 316 313 306 307 307 308 308 303 300 300 299 297 295 295 294 294 294 294 294 294 293 293 292 293 292 292 292 291 291 290 289 289 289 289 289 288 288 287 287 287 287 287 286 285 285 284 283 282 281 281 280 280 280 280 280 280 280 281 281 281 281 282 284 285 287
316 315 311 308 307 309 311 312 311 308 308 311 312 311 312 316 317 315 315 311 310 315 310 303 305 306 305 308 307 303 299 297 296 295 294 294 294 294 294 294 293 293 293 292 292 292 292 292 291 290 290 289 289 289 289 288 288 287 287 286 286 286 286 286 286 285 284 283 282 281 281 280 280 280 279 280 280 280 281 281 281 280 281 282 283 285
321 318 311 309 310 309 311 314 315 313 311 310 310 313 315 314 313 314 314 313 313 315 309 303 304 305 306 307 306 301 296 295 295 294 295 294 294 294 294 294 293 293 293 292 292 292 292 291 291 290 289 289 289 289 288 288 288 287 287 286 286 286 286 286 286 285 284 283 282 281 281 280 279 279 279 279 279 279 280 280 280 280 280 280 282 283
320 322 317 314 312 310 310 313 317 317 311 309 311 313 314 313 314 315 314 314 315 314 309 303 304 308 309 304 300 296 294 294 295 294 295 294 294 294 293 293 293 292 293 292 292 292 291 291 290 289 289 289 289 288 288 288 287 287 286 285 285 286 286 286 285 285 285 283 282 281 280 280 279 279 279 279 279 278 279 279 279 279 279 279 280 282
316 322 315 307 306 308 309 307 309 314 313 308 307 308 310 312 313 313 311 309 308 308 306 304 306 308 305 299 295 294 294 293 294 294 294 294 294 294 293 293 293 292 292 292 292 292 291 291 290 289 289 289 288 288 288 287 287 286 286 285 285 286 285 285 285 284 283 283 282 281 281 280 280 279 279 278 278 277 277 278 278 278 278 279 280 281
317 320 310 303 304 304 303 303 302 308 313 308 305 308 309 309 308 308 308 306 304 305 306 305 306 306 303 299 295 294 295 294 293 293 293 294 294 293 293 293 293 292 292 292 292 291 291 290 290 289 289 288 288 288 287 287 287 286 285 285 285 285 285 285 284 283 282 281 281 282 281 280 280 279 279 278 277 277 277 277 277 277 277 278 279 280
318 318 309 306 309 302 298 301 300 300 305 307 307 308 306 305 304 306 307 306 304 306 306 305 305 304 305 304 296 294 295 294 293 294 293 293 293 293 293 292 293 293 292 292 291 291 290 290 289 289 288 288 288 287 287 287 286 286 285 285 284 284 284 284 283 282 281 280 281 281 281 280 280 279 279 278 278 277 276 276 276 276 276 277 278 280
317 318 311 304 306 303 299 303 304 300 300 304 305 304 304 306 305 305 306 306 307 308 308 307 305 303 304 303 297 294 295 294 293 294 294 293 293 293 293 293 293 292 292 292 291 291 290 290 289 289 288 288 287 287 287 286 286 286 285 284 284 284 283 282 281 280 280 280 280 280 280 280 279 279 279 279 278 278 277 275 275 275 276 277 278 279
314 319 316 303 302 304 302 304 309 305 299 299 300 300 302 305 305 305 305 305 308 309 309 309 307 306 305 303 299 296 295 294 293 295 295 293 292 293 293 293 293 292 292 291 291 290 290 289 289 288 288 288 287 287 286 286 286 285 285 284 284 284 283 281 280 279 279 279 280 280 281 280 280 279 278 278 278 277 277 276 275 274 275 276 278 278
312 316 316 306 301 304 306 305 308 308 303 300 300 300 300 300 303 305 303 303 305 306 307 307 307 308 306 302 301 298 296 294 294 295 296 293 292 293 293 292 292 292 291 291 290 290 289 289 289 288 288 287 287 287 286 285 285 285 285 284 284 283 282 281 280 279 279 280 280 280 281 281 280 279 278 278 277 277 277 276 275 274 275 275 277 278
312 315 315 309 305 306 308 306 305 306 306 302 302 302 301 300 303 305 304 303 303 303 305 306 307 309 304 299 298 298 296 295 294 295 294 293 293 293 292 292 292 292 291 291 290 290 289 289 288 288 288 287 287 286 286 285 285 284 284 285 284 283 282 280 279 279 279 279 280 281 281 281 280 279 278 277 277 276 276 276 275 274 274 274 276 277
309 312 311 310 310 307 304 303 301 302 303 302 302 303 302 301 302 305 306 306 304 301 302 303 304 305 302 297 297 296 295 294 294 293 293 292 293 293 292 293 292 291 291 290 290 289 289 289 288 288 288 287 287 286 286 285 284 284 284 284 284 282 281 280 279 278 278 279 280 280 280 280 279 279 278 277 276 276 275 275 275 274 273 274 275 277
306 311 310 310 313 308 300 297 297 298 299 301 301 301 301 301 302 304 305 305 304 302 301 301 302 303 300 297 296 295 294 294 293 294 293 292 293 293 292 292 292 291 291 290 289 289 288 288 288 288 287 287 286 286 285 284 284 284 284 283 283 282 280 280 279 278 278 278 280 280 280 279 278 278 278 277 276 275 275 274 274 274 273 273 274 275
309 313 312 311 314 313 306 302 301 299 298 298 300 300 300 301 302 302 302 302 302 302 301 301 303 303 299 297 296 294 294 295 293 293 294 293 292 292 292 292 291 291 290 289 289 289 288 288 288 288 287 286 286 285 285 284 284 283 283 283 282 281 281 280 279 278 278 278 279 281 281 280 278 277 277 276 276 275 274 273 274 274 273 273 274 275
312 313 312 313 316 317 317 314 311 306 299 297 299 300 299 300 300 300 301 302 301 301 301 301 302 302 297 296 296 295 295 295 293 292 293 293 292 292 292 291 291 291 290 289 289 289 288 288 288 287 287 286 286 285 284 284 284 283 283 282 281 280 280 279 278 277 277 278 279 279 280 279 277 276 275 275 275 274 273 272 272 273 273 273 274 275
312 311 309 312 315 316 318 316 311 305 301 300 300 299 299 300 300 301 302 302 301 301 302 301 302 302 299 297 296 295 295 296 294 292 292 292 292 292 291 291 291 290 290 289 289 288 288 288 288 287 287 286 285 284 284 283 283 283 282 282 281 280 279 278 277 277 277 278 279 279 278 277 276 275 275 274 274 273 272 271 271 272 272 272 273 274
311 309 307 310 312 312 315 314 308 305 303 304 302 299 298 300 301 301 301 301 301 302 302 303 302 302 301 300 298 296 295 296 295 292 291 292 292 292 291 291 291 290 289 289 289 288 288 288 287 287 286 285 285 284 283 283 283 283 282 281 281 279 278 277 277 277 278 279 280 281 280 278 277 275 274 273 273 272 270 270 271 270 270 271 272 272
309 309 308 309 309 308 310 310 308 306 304 305 304 300 298 299 300 301 300 300 301 301 303 304 303 302 301 300 299 298 296 295 294 292 292 293 292 291 291 291 290 290 289 289 289 288 288 288 287 286 286 285 285 284 283 283 283 283 282 281 280 279 277 277 277 277 278 279 280 280 279 277 275 274 274 273 273 272 270 270 270 270 271 271 271 272
306 308 308 308 309 308 308 307 306 305 304 305 304 301 299 299 299 300 300 300 300 300 301 302 301 301 300 300 299 298 296 295 293 293 293 292 292 291 291 291 290 289 289 289 288 288 288 287 287 286 285 285 284 283 282 283 282 281 281 280 279 279 277 276 277 277 278 280 280 279 278 278 277 276 275 273 271 270 270 270 270 270 271 271 271 272
304 307 307 306 307 307 306 306 305 304 303 303 303 302 301 299 299 299 299 299 299 299 299 299 299 299 299 299 299 297 295 294 293 292 292 292 291 291 291 290 289 289 289 289 288 288 288 287 286 286 285 284 283 282 282 282 281 280 280 279 279 278 277 276 277 278 279 279 280 280 279 277 275 274 272 272 271 269 269 269 270 270 270 271 271 272
303 305 304 303 306 307 305 303 302 301 301 301 301 301 300 300 300 299 299 299 298 298 298 298 298 298 298 299 298 296 294 293 292 291 291 291 291 291 290 290 289 289 289 288 288 288 287 286 286 285 284 284 283 283 281 280 280 280 280 279 278 277 277 277 277 278 278 279 280 280 278 276 275 274 273 274 274 272 270 270 270 270 270 271 271 272
301 304 304 303 305 306 302 299 299 300 301 303 303 302 301 300 300 300 300 299 299 298 298 299 299 299 299 299 298 296 295 293 292 291 291 291 291 291 290 290 289 289 289 288 288 287 286 286 285 284 284 284 283 282 281 279 279 280 279 278 277 277 277 277 277 277 278 279 280 280 279 276 274 272 271 271 272 272 272 271 271 271 271 271 271 272
300 303 304 304 305 302 298 298 299 301 307 308 305 303 303 301 300 300 300 300 300 299 298 299 299 299 299 299 298 296 294 293 292 292 292 291 291 290 290 289 289 289 288 288 287 286 286 286 285 284 284 284 283 281 280 279 279 279 278 277 277 277 277 277 277 277 278 279 280 280 279 276 273 272 273 273 271 270 270 271 272 272 272 272 272 273
301 302 302 303 303 300 297 298 302 306 308 305 300 300 302 301 300 300 300 300 300 299 299 299 299 299 299 297 296 294 292 292 292 292 292 291 291 290 290 289 289 289 288 287 287 286 286 285 285 285 284 283 282 280 280 279 279 279 278 277 277 277 277 277 277 277 278 279 280 280 278 277 275 275 276 275 274 272 271 271 272 272 272 273 273 273
302 301 302 302 301 300 298 300 305 308 306 303 300 298 298 299 299 299 300 300 300 299 299 299 298 299 299 295 292 292 292 291 291 291 290 291 290 290 289 289 289 288 287 287 286 286 285 285 285 284 283 282 281 280 280 279 278 278 278 277 277 277 277 277 276 277 278 279 280 279 279 279 277 274 273 273 274 273 273 273 273 273 273 273 274 275
303 302 302 301 301 303 302 301 304 305 304 305 303 298 296 298 298 298 300 301 300 299 299 298 298 298 297 292 290 291 291 290 291 290 289 290 290 290 289 289 288 288 287 286 286 285 285 285 284 283 283 282 281 280 279 279 278 278 278 277 277 277 277 276 276 276 278 279 280 280 280 279 276 274 274 273 272 272 272 272 274 275 274 274 275 276
302 302 302 303 303 303 303 303 304 305 306 305 302 297 296 297 297 298 300 299 299 299 298 297 298 297 295 291 289 290 291 292 292 291 289 289 289 289 289 289 288 287 286 286 286 285 285 285 284 283 282 282 281 279 279 278 278 277 277 277 276 276 276 276 276 276 278 279 280 280 280 278 276 275 275 274 273 272 272 272 273 275 276 276 276 277
300 301 301 303 304 302 302 303 304 305 306 303 299 296 295 295 296 299 300 299 298 298 297 297 297 296 293 290 289 290 292 293 293 291 289 289 289 289 289 289 287 287 286 286 285 285 285 284 284 283 282 281 280 279 278 278 277 277 276 276 276 276 276 275 275 276 278 279 279 280 279 278 276 276 275 274 273 272 271 272 274 276 276 277 277 278
300 300 300 301 303 302 302 302 303 304 304 299 296 294 294 294 296 300 303 303 298 295 295 295 295 294 291 290 290 291 293 294 293 291 289 289 289 289 289 288 287 286 286 285 285 285 284 284 283 282 282 281 280 279 278 277 277 276 276 275 275 275 275 275 275 276 277 278 279 280 279 278 276 275 275 273 272 272 272 273 274 276 277 278 279 279
299 300 300 300 301 301 302 302 302 303 302 297 293 293 293 295 298 301 304 302 295 292 293 294 294 292 291 290 290 292 292 292 292 291 290 289 289 289 289 287 286 286 286 285 285 284 284 284 283 281 280 280 280 279 278 277 276 276 275 275 275 275 274 274 275 276 277 278 279 279 279 278 275 274 274 273 271 271 273 274 275 276 277 278 279 279
298 299 299 299 300 300 301 301 301 302 300 295 292 293 294 298 302 301 299 296 293 292 293 294 293 292 291 291 291 291 291 291 291 290 290 289 289 289 288 287 286 286 285 285 284 284 284 283 282 281 280 279 279 278 277 276 276 275 275 275 274 274 274 274 275 276 277 278 279 279 279 278 276 274 275 274 272 272 274 276 277 276 277 278 279 280
299 299 298 299 300 299 300 299 299 302 300 294 292 294 295 299 301 297 294 293 293 293 293 293 293 292 292 291 291 291 291 290 290 290 289 289 289 288 287 286 286 286 285 285 284 284 283 282 281 280 279 278 278 277 276 275 275 275 274 274 274 274 274 274 275 276 277 278 278 279 279 279 277 275 275 275 274 274 275 276 276 277 278 279 279 280
301 300 299 300 300 299 300 300 300 300 297 294 294 296 296 297 297 296 295 294 293 293 293 293 292 292 292 292 291 291 291 290 290 290 289 289 289 288 287 286 286 285 285 284 284 284 283 282 281 280 279 278 277 276 275 275 275 274 274 274 274 274 274 274 274 276 277 278 278 278 278 279 277 275 275 275 275 275 276 275 276 277 278 278 278 279
303 301 302 302 301 300 302 301 299 297 295 294 295 297 296 295 296 296 296 295 293 293 293 293 292 292 292 292 292 291 291 290 290 290 289 289 288 287 286 286 285 285 285 284 284 283 282 281 280 280 279 277 276 275 274 274 274 274 274 274 274 274 274 274 274 276 277 277 278 277 277 278 278 277 277 277 276 275 276 275 275 276 276 276 277 278
302 300 301 302 301 300 302 300 297 295 294 294 295 296 295 295 295 295 295 295 294 294 293 293 293 292 292 292 292 291 291 290 290 289 289 289 288 286 286 286 285 284 284 284 283 283 282 281 280 279 278 277 276 275 274 274 274 274 274 274 273 273 273 274 274 275 276 277 277 277 276 277 277 277 277 277 277 277 276 274 273 274 274 274 275 277
301 299 300 301 301 302 303 301 298 296 295 294 294 295 295 295 295 295 295 295 294 294 294 293 293 292 292 292 291 291 290 290 289 289 289 288 287 286 286 285 284 284 284 283 283 282 282 281 280 279 278 277 276 275 274 274 273 273 273 273 273 273 273 273 274 275 276 276 277 276 276 275 276 277 277 277 276 277 277 275 273 272 272 272 273 275
302 299 299 300 301 302 302 300 297 296 295 294 294 294 294 294 294 294 294 295 294 294 293 293 292 292 292 291 291 290 290 290 289 289 289 288 287 286 285 284 284 284 284 283 283 282 282 281 280 278 277 277 276 275 274 274 273 273 273 273 273 273 273 273 273 274 275 276 276 276 275 274 275 276 277 277 276 275 275 274 272 271 272 272 271 272
301 299 300 300 300 300 301 299 295 295 295 294 294 294 294 295 295 294 293 294 294 293 293 292 292 292 291 291 291 290 290 289 289 289 288 287 286 285 285 284 284 284 283 283 283 282 281 280 279 278 277 276 275 275 274 273 273 273 273 272 272 272 272 272 273 274 275 275 275 275 274 274 275 275 276 277 276 276 275 273 270 269 271 273 272 272
300 300 300 300 300 301 302 299 297 297 298 295 293 294 295 295 294 294 293 293 293 293 292 292 291 291 291 291 290 290 289 289 289 288 288 287 286 285 285 284 284 284 283 283 283 282 281 279 278 277 277 276 275 274 274 273 273 273 272 272 272 272 272 272 272 273 274 275 275 274 274 274 274 274 275 275 275 276 278 277 274 271 270 272 274 274
302 303 301 301 303 303 302 299 298 299 299 296 294 295 295 294 294 293 293 293 293 292 292 292 291 291 290 290 290 290 289 289 289 288 288 286 285 285 285 284 284 284 283 283 282 281 280 278 277 277 277 276 275 274 273 273 272 272 272 272 272 271 271 271 272 272 273 274 274 274 273 273 273 274 274 274 274 274 276 277 278 277 274 273 274 276
Wind_Speed
3 4 2 2 4 4 3 4 6 5 5 4 4 4 6 6 6 6 4 4 2 3 6 7 6 5 6 8 9 16 19 18 20 20 19 19 16 13 11 8 6 5 7 11 11 11 15 21 27 30 31 32 34 35 35 36 37 39 40 40 42 43 45 46 48 50 50 51 53 55 55 56 57 55 52 52 50 49 49 49 47 47 45 43 42 43
3 4 3 7 8 6 5 5 5 3 3 4 4 4 6 5 7 8 5 4 1 1 5 5 5 7 7 7 10 16 15 15 19 20 19 19 16 12 10 8 5 4 5 9 10 10 15 21 26 30 32 33 34 33 34 36 37 38 38 40 42 44 45 46 46 47 48 50 51 51 51 52 53 51 50 50 49 48 48 48 47 46 44 42 42 42
4 4 7 8 7 4 3 4 5 4 4 5 4 3 5 5 5 6 3 2 1 1 4 5 6 8 8 7 10 16 13 14 20 22 20 19 17 13 10 7 5 3 3 8 9 11 16 20 25 29 32 32 31 33 35 36 37 38 39 41 43 44 45 46 46 46 49 52 51 48 48 48 50 53 53 53 52 48 46 46 46 45 44 42 42 41
4 5 7 7 7 3 2 2 4 3 4 5 4 3 5 4 2 4 3 3 4 3 4 6 8 7 5 3 6 11 12 14 17 20 19 17 15 13 11 8 5 2 3 7 8 11 14 18 23 28 30 30 31 34 35 36 38 39 41 42 43 44 45 45 45 47 50 53 52 51 52 53 54 56 56 56 54 48 44 43 42 43 43 43 42 41
6 7 5 6 5 5 2 2 2 4 4 5 6 6 6 5 4 6 4 5 6 5 5 7 8 6 6 8 5 5 9 13 16 19 17 15 14 13 12 9 4 1 2 5 7 10 12 16 22 25 28 31 33 34 36 37 39 40 41 42 42 44 45 45 46 48 51 52 54 56 58 59 58 58 55 51 49 46 43 43 41 40 40 42 43 42
7 5 6 5 3 4 3 3 3 6 3 5 5 7 6 5 4 5 4 5 5 5 4 2 4 6 5 10 8 5 6 9 12 16 16 16 16 15 14 9 4 2 1 3 6 9 11 15 20 24 29 33 35 34 35 38 40 40 41 40 42 45 47 48 48 49 50 52 55 56 57 59 58 57 55 49 47 48 50 50 47 44 41 41 42 42
3 2 5 5 4 3 2 4 5 6 3 4 5 5 5 5 2 4 2 2 2 4 3 3 2 7 2 6 9 7 8 9 8 10 14 18 19 16 14 10 5 1 1 3 6 8 11 15 20 25 31 34 35 34 35 38 39 40 40 40 42 46 48 49 50 50 49 50 53 54 54 55 52 50 51 50 49 50 53 52 46 44 42 40 40 42
2 2 2 3 4 3 3 5 5 6 5 4 4 5 4 2 3 5 3 3 4 3 4 2 4 6 6 6 9 10 9 8 8 8 11 17 19 15 13 9 4 1 1 4 7 8 11 16 21 26 31 34 35 35 36 38 40 40 40 41 43 46 48 49 50 49 47 47 49 51 52 52 49 46 47 49 51 51 49 47 43 42 41 38 37 39
2 3 4 4 3 3 5 5 6 7 3 5 5 5 4 5 6 5 4 6 3 3 5 5 5 5 7 4 5 9 9 9 11 11 10 15 19 16 13 9 3 2 1 4 6 8 13 18 23 28 32 35 35 35 37 39 40 41 43 44 45 46 48 49 50 49 47 45 46 47 49 50 48 46 46 48 50 49 48 48 46 43 42 39 36 35
2 3 5 7 4 5 6 5 6 7 3 4 4 3 3 4 6 4 5 4 1 1 7 6 7 4 6 2 4 6 7 10 11 9 8 15 20 16 12 8 4 2 1 4 6 10 15 19 25 30 34 36 36 36 39 40 42 43 45 46 47 47 48 50 51 50 48 46 46 47 48 48 48 47 47 47 48 48 47 46 44 43 42 41 38 34
1 2 3 4 4 5 4 3 3 5 3 0 1 2 4 4 3 1 2 0 2 4 8 6 9 7 5 3 7 5 6 9 11 9 9 14 19 17 11 8 5 3 1 4 7 11 16 21 27 32 35 36 36 37 40 42 44 44 46 47 48 49 49 50 52 51 50 47 46 47 47 47 47 46 47 47 48 48 45 43 42 44 44 43 41 38
2 1 2 2 4 4 5 1 1 1 2 3 3 3 4 5 3 4 3 3 1 6 6 4 6 7 6 5 6 6 4 8 13 12 11 12 16 17 12 8 6 3 2 5 9 14 20 26 30 33 36 36 35 37 41 43 45 46 47 48 50 51 50 51 53 53 52 50 48 48 48 47 45 44 45 47 49 46 42 43 44 44 45 43 41 41
2 4 3 2 2 5 6 1 3 4 4 4 3 4 3 4 4 3 3 0 3 6 4 1 0 4 8 7 6 8 5 8 13 15 16 15 17 17 11 8 6 3 3 5 11 18 25 28 30 33 35 34 35 38 42 44 46 46 48 49 51 52 52 52 54 56 56 53 51 50 50 48 46 44 44 45 46 44 42 44 44 44 45 44 42 43
3 5 2 1 2 6 7 3 2 1 2 4 3 3 2 1 3 4 3 2 4 6 4 2 1 3 5 5 6 8 6 10 17 20 20 19 18 14 11 9 7 4 3 8 15 22 25 26 29 32 33 33 35 38 42 45 46 47 49 50 51 53 53 54 55 57 57 55 53 52 52 49 46 45 44 44 44 44 44 44 45 44 43 43 43 44
2 6 3 3 2 6 7 4 5 4 3 4 4 5 4 3 2 4 3 4 6 6 4 2 2 4 3 3 4 6 11 16 21 21 19 17 15 12 10 9 6 2 4 12 17 21 23 25 29 32 32 33 34 39 43 45 45 47 48 50 52 53 54 55 55 57 57 57 55 54 53 50 47 46 45 45 45 44 44 43 44 44 42 43 44 42
3 6 4 0 1 6 4 3 4 5 2 2 2 4 2 5 4 3 3 4 2 6 5 3 3 5 3 3 1 8 11 14 17 18 18 17 14 12 11 9 3 3 9 14 17 20 22 25 28 31 31 32 35 40 43 44 45 46 48 50 51 53 54 54 54 55 54 55 56 56 54 51 49 48 48 48 47 44 44 43 43 43 43 45 45 40
2 5 2 2 2 3 2 1 2 2 1 1 2 3 4 4 4 1 3 1 3 4 6 3 4 4 1 2 2 7 7 8 11 13 16 17 14 12 11 7 2 5 10 13 16 19 22 25 28 30 30 31 36 41 43 43 45 46 48 49 51 53 54 55 55 55 53 53 56 57 56 53 52 51 50 49 48 47 45 44 44 44 44 45 43 40
2 4 3 2 1 2 0 1 2 2 2 4 3 4 2 2 2 2 1 3 2 5 6 3 6 6 1 2 4 6 8 9 8 8 12 15 14 12 9 6 1 5 8 12 15 18 21 25 29 30 29 31 36 41 42 43 45 46 48 48 50 53 53 54 55 55 53 53 56 57 56 55 54 53 53 52 51 50 48 47 46 45 44 43 40 39
1 3 4 1 2 2 1 2 1 2 2 3 2 2 2 1 2 2 1 2 2 6 7 2 5 7 5 5 7 11 13 12 9 8 9 10 12 12 9 5 0 4 7 11 14 18 22 26 29 29 29 33 38 40 41 43 45 46 48 48 50 52 52 52 53 52 52 52 54 56 56 56 55 54 55 55 53 51 49 48 46 45 44 41 38 37
2 1 4 1 1 1 2 1 3 2 1 3 1 1 1 2 3 2 2 2 3 5 7 5 6 4 6 7 12 15 15 14 11 9 8 9 13 13 10 6 2 3 7 12 15 18 22 25 28 28 30 36 40 41 41 43 45 46 48 49 50 52 53 53 53 52 53 54 54 56 57 57 57 55 56 56 55 52 50 48 46 44 43 40 36 35
2 2 3 2 2 1 2 4 7 7 5 3 2 2 2 2 1 1 2 3 3 5 4 5 9 6 3 5 10 14 14 14 12 9 8 11 15 14 11 8 2 4 8 12 15 19 22 25 27 28 32 38 40 41 41 43 45 46 47 49 50 52 53 54 54 54 55 56 56 57 59 60 59 57 57 57 55 52 50 47 44 42 41 40 38 36
2 3 4 1 2 4 5 5 6 7 7 6 6 6 7 5 3 2 5 3 3 5 4 3 12 10 3 3 6 10 11 11 12 10 8 12 17 15 11 7 2 5 7 11 15 19 23 25 27 30 35 40 41 41 43 43 45 46 48 50 51 52 53 53 54 55 56 57 57 58 60 61 60 58 58 57 56 52 50 48 45 42 40 40 38 37
2 2 3 5 5 5 4 2 1 2 3 3 4 5 6 6 6 6 7 4 2 3 2 5 12 10 2 4 6 8 10 12 15 14 10 14 18 14 9 5 2 5 8 13 16 19 23 26 29 32 38 42 42 42 44 44 45 47 48 50 51 53 53 53 54 54 56 57 58 59 60 60 59 57 57 57 55 53 51 49 46 41 39 39 38 37
2 2 3 6 5 1 1 2 4 4 3 1 4 5 6 8 9 8 5 1 1 4 4 5 11 8 1 2 5 8 10 13 16 16 16 17 17 12 8 4 2 5 9 15 17 20 24 27 30 34 39 42 42 43 44 45 46 47 48 49 51 53 54 54 54 55 57 58 59 60 61 60 58 56 57 58 57 55 52 49 46 42 39 38 38 38
5 2 3 2 6 5 3 2 2 2 1 4 4 5 8 10 7 3 2 2 2 9 9 7 12 9 1 2 5 7 8 9 11 15 18 17 15 11 7 4 2 6 12 16 19 21 25 28 30 35 40 41 42 43 44 45 47 48 48 50 51 53 54 54 55 56 57 58 60 61 61 61 60 56 55 57 57 55 52 49 46 42 39 38 37 37
7 2 5 4 7 10 9 7 3 1 3 3 3 7 11 11 11 6 3 3 6 11 10 10 13 10 2 4 6 7 8 7 8 13 15 14 14 11 7 3 2 8 15 18 19 23 26 28 32 37 40 41 41 42 44 46 47 48 49 50 50 52 54 54 54 56 57 58 60 61 63 64 61 54 53 56 57 55 51 49 46 43 39 37 35 33
3 2 7 10 11 13 15 11 1 5 4 4 5 11 12 12 15 11 3 6 8 5 8 15 16 14 10 7 7 7 8 8 7 10 14 15 14 11 6 2 5 11 16 17 19 23 26 29 34 38 40 40 40 42 43 45 47 49 50 51 51 52 53 53 55 57 57 58 59 59 61 63 60 56 56 58 57 54 51 48 46 44 39 34 32 32
2 5 10 14 18 20 20 15 3 3 7 10 8 10 12 13 16 14 12 14 7 3 13 21 15 15 19 13 9 10 10 8 7 11 16 17 13 7 3 2 7 12 15 16 19 23 27 30 35 39 39 39 41 42 43 45 47 48 49 50 51 52 53 53 55 58 58 60 61 62 64 65 62 58 58 59 58 55 50 48 48 47 42 38 36 37
3 8 11 11 17 22 19 15 10 7 10 15 12 10 12 16 18 19 22 22 11 8 20 23 13 15 19 14 11 11 11 10 11 14 15 12 9 6 2 3 9 12 14 16 19 23 26 31 35 37 38 39 41 42 44 45 47 49 49 49 51 52 53 54 56 58 59 60 62 63 65 65 60 56 56 58 58 54 49 46 46 47 45 42 40 39
3 7 8 7 13 20 17 12 11 11 13 19 18 12 14 19 20 21 24 23 18 19 26 25 20 20 19 14 12 10 12 14 14 15 14 11 10 7 2 4 8 11 12 16 19 22 26 31 34 35 36 39 40 42 44 46 47 49 49 50 51 52 53 55 56 58 59 60 62 63 63 64 62 60 60 61 59 57 54 49 46 45 45 43 41 39
4 4 1 4 7 17 15 9 10 12 14 20 21 15 16 19 19 20 22 19 17 22 27 25 21 22 20 13 11 11 14 15 13 15 16 14 12 7 2 5 8 10 12 15 18 22 27 31 33 34 35 37 40 41 44 46 47 48 49 49 51 52 54 55 56 58 59 60 62 63 64 65 63 59 59 59 56 54 55 54 49 45 44 43 41 39
5 3 2 4 5 10 6 3 6 6 8 18 25 21 19 19 19 19 18 18 18 20 23 19 16 19 15 4 4 9 14 13 12 16 17 14 10 6 2 5 7 9 11 14 18 23 28 30 31 33 35 37 39 41 42 44 47 48 49 50 51 52 54 55 56 58 59 59 61 63 64 64 62 59 61 64 60 52 50 51 50 47 45 43 40 38
5 4 2 4 4 5 1 4 2 2 4 15 19 17 20 23 23 19 16 20 21 17 15 14 16 17 9 4 6 8 10 10 12 16 18 15 11 5 3 4 5 7 10 14 19 24 27 28 29 31 34 36 39 40 41 43 45 47 48 49 50 51 53 55 56 57 58 60 62 63 64 64 62 61 64 67 65 59 54 51 49 46 45 43 41 38
7 7 4 4 3 2 1 4 4 0 9 12 5 5 17 23 24 22 22 25 22 16 15 17 17 15 7 6 9 8 10 13 16 18 17 14 10 5 3 2 4 7 10 15 20 23 24 26 28 30 33 35 37 38 40 41 43 46 47 48 49 51 52 54 56 57 58 60 61 62 66 66 61 59 60 59 57 58 58 55 50 46 43 42 40 38
9 9 4 3 2 2 2 3 2 6 11 6 3 3 10 15 18 21 24 27 22 17 19 22 21 18 12 9 10 12 15 17 18 17 14 10 7 5 3 2 3 6 11 16 19 21 23 25 28 30 32 34 36 38 39 41 43 45 46 47 48 50 52 54 55 57 58 60 62 63 65 65 64 64 64 61 56 53 52 51 49 46 44 41 39 38
10 8 4 3 3 2 2 4 7 8 12 11 4 5 5 4 8 10 16 23 20 17 18 20 22 21 14 6 10 15 19 19 15 12 10 8 6 4 4 3 3 7 13 16 17 19 22 24 26 29 31 33 35 37 39 40 42 44 46 47 48 50 52 53 55 56 58 60 62 63 64 65 66 66 64 62 59 54 51 49 45 42 41 40 38 36
9 8 5 4 4 3 4 7 7 8 18 19 10 5 7 6 8 9 10 17 13 15 17 18 19 18 9 8 14 19 21 15 8 6 8 8 6 5 5 3 4 10 14 14 16 18 20 22 25 27 29 31 33 35 38 40 41 43 45 46 48 49 51 53 54 56 58 60 61 63 65 65 66 66 63 61 58 55 52 49 45 40 37 38 38 35
8 7 6 6 5 4 4 6 5 7 12 9 2 3 7 8 8 7 5 11 6 14 19 19 17 12 6 10 15 19 17 8 3 5 11 11 9 7 5 3 7 11 13 13 15 17 19 21 24 25 27 30 32 34 36 39 40 42 45 46 47 49 51 53 54 55 57 59 61 62 64 64 63 64 64 62 58 55 53 49 44 40 36 35 36 34
6 4 3 4 5 4 5 6 6 9 11 3 2 1 6 13 11 8 2 8 5 12 18 17 12 9 10 14 16 15 10 5 5 7 14 14 10 8 4 6 9 10 11 12 15 16 18 21 23 24 26 29 32 34 36 38 40 41 43 45 46 48 50 52 54 55 56 58 60 61 62 63 63 63 62 61 58 56 53 49 44 39 34 32 33 32
5 3 2 5 8 8 7 6 5 8 8 3 4 2 10 17 14 7 4 9 3 7 15 14 9 10 16 20 18 11 7 8 7 8 15 15 11 8 6 7 9 9 10 11 14 16 18 21 23 24 26 28 31 34 35 37 39 40 42 44 45 47 49 51 52 54 55 57 59 60 61 62 61 61 60 59 57 55 53 48 43 38 33 29 30 30
3 3 5 7 9 8 8 7 6 7 6 6 8 11 17 17 9 2 7 6 5 7 13 15 13 17 23 24 18 11 8 9 7 9 14 14 10 9 7 8 8 9 10 11 13 15 17 20 22 23 25 27 30 33 35 37 38 39 41 43 45 47 48 49 51 53 54 56 58 59 61 61 59 59 58 56 55 54 50 42 37 35 32 30 29 30
4 3 4 6 6 6 7 5 5 9 7 12 16 20 22 12 3 7 5 8 13 14 15 17 19 22 27 27 23 16 11 10 10 11 13 12 11 9 9 9 8 8 10 11 13 15 16 19 21 22 24 26 29 31 33 35 37 38 40 42 44 46 47 49 51 52 54 55 57 58 60 60 58 58 57 55 53 51 46 38 33 32 31 29 30 30
7 5 4 7 5 4 3 4 4 9 7 23 23 15 13 7 5 7 10 8 13 19 18 19 20 23 27 26 21 17 14 13 13 12 13 14 13 11 11 9 8 9 10 11 13 15 16 19 21 21 23 26 27 29 31 34 36 38 39 41 43 45 46 48 49 51 53 54 56 57 59 60 59 57 56 55 53 50 45 39 35 33 30 29 30 32
6 7 5 6 6 6 5 9 8 5 11 32 26 10 15 19 11 16 15 8 11 19 21 20 21 24 27 25 21 18 16 15 15 14 15 16 15 12 11 9 8 9 10 11 13 15 16 19 20 21 23 24 26 28 30 33 36 37 38 40 42 44 46 47 48 50 52 53 55 57 58 59 59 58 57 55 53 50 44 39 36 33 31 31 32 33
12 11 5 3 8 8 6 9 6 2 16 36 25 8 18 26 15 13 16 15 16 20 22 22 23 25 26 24 21 19 17 17 17 18 18 18 15 12 11 10 10 9 10 11 13 15 16 18 20 21 22 23 25 27 29 31 34 37 38 40 41 43 45 47 48 49 51 52 54 56 58 59 59 59 58 56 55 50 44 40 38 35 33 33 32 32
9 8 2 1 5 5 9 10 7 6 15 32 27 12 15 24 20 15 16 18 20 22 22 24 26 27 26 24 21 20 20 20 20 20 19 18 15 13 12 11 10 9 10 11 12 14 16 18 20 21 22 23 24 26 28 30 32 35 37 39 41 42 44 45 47 48 49 51 53 54 57 59 59 59 59 57 55 50 42 39 39 38 37 35 32 31
5 9 6 3 4 4 7 9 10 11 16 27 28 18 14 20 24 23 20 19 20 22 23 24 25 26 26 24 22 22 22 22 21 22 21 19 16 14 13 11 10 9 9 10 11 14 16 18 20 21 22 24 25 26 28 29 31 33 35 38 40 41 42 43 45 47 48 50 52 53 56 57 58 59 59 58 57 52 43 39 38 38 38 36 34 33
6 12 10 10 10 9 6 3 6 13 21 28 30 25 19 21 26 25 23 22 20 22 25 25 24 25 25 24 23 23 22 22 22 22 22 20 17 15 13 12 10 9 9 10 11 14 16 18 20 21 23 24 25 27 28 29 31 32 34 37 39 40 42 42 43 44 46 48 50 52 54 55 56 58 59 59 57 53 47 42 41 38 35 34 34 34
10 12 9 9 10 11 11 4 6 6 11 19 28 30 28 29 28 26 25 24 22 23 26 26 24 24 23 22 24 24 23 23 23 22 21 20 17 15 13 12 9 8 9 9 11 13 16 18 19 20 22 24 25 26 27 29 30 32 34 36 37 39 41 42 42 43 44 45 48 50 52 54 54 55 57 58 58 55 49 45 43 39 35 31 28 27
10 9 6 6 9 13 15 12 13 8 5 12 26 34 34 31 30 28 27 25 24 25 28 28 26 24 22 22 23 24 23 22 22 21 21 18 16 14 13 11 9 9 8 9 11 13 15 17 18 19 22 23 24 26 27 28 29 31 32 34 36 38 40 41 41 42 42 44 46 48 50 52 53 54 54 55 57 57 53 47 41 37 34 32 28 22
15 16 12 11 13 13 12 18 23 15 6 10 27 37 36 32 31 31 30 29 28 28 29 29 29 28 26 24 24 23 22 21 20 21 20 18 16 14 12 11 10 8 8 9 11 12 14 16 17 19 21 23 24 25 26 27 28 29 31 33 34 36 38 39 40 41 41 42 43 45 47 49 50 52 53 54 55 55 56 53 44 36 32 29 29 26
Wind_Direction
109 33 2 214 214 204 208 187 186 212 202 218 250 243 253 258 269 266 254 263 195 190 250 227 233 248 209 214 195 172 164 155 150 150 148 144 141 132 123 118 92 66 26 14 2 345 347 357 1 1 360 358 356 354 351 348 345 342 340 338 336 333 331 330 330 330 328 327 325 323 320 318 316 315 313 310 307 306 303 300 298 298 298 296 294 292
61 7 262 213 206 196 205 209 191 208 227 238 239 251 265 248 259 266 232 232 205 180 264 245 249 267 248 233 194 173 165 165 164 157 152 147 144 138 129 127 107 75 20 2 353 344 349 355 358 358 358 357 355 352 348 345 341 339 339 337 335 333 332 332 330 328 326 324 324 322 319 317 315 314 312 309 307 307 304 300 297 296 296 294 292 291
3 299 245 215 198 194 230 219 186 202 225 237 244 263 272 255 268 282 245 209 354 273 270 276 266 257 255 241 190 180 178 176 173 162 155 151 146 146 141 133 125 99 5 350 346 347 350 351 353 355 356 356 351 347 344 342 340 338 337 335 334 334 334 332 330 327 324 323 323 320 316 314 311 307 305 303 302 303 302 299 297 295 294 292 289 288
319 260 228 197 173 160 273 232 177 211 248 235 239 254 260 259 269 278 287 319 319 276 252 275 272 252 239 212 183 190 176 162 165 159 155 156 152 154 156 144 135 141 345 346 344 346 346 347 351 352 353 353 347 344 343 341 340 338 336 335 334 334 334 332 328 325 323 323 322 318 314 312 309 306 305 304 303 302 300 298 298 296 294 292 288 287
268 251 192 160 163 159 187 273 177 196 260 251 223 222 245 253 236 240 282 327 324 309 280 282 288 264 194 181 189 185 155 148 155 152 152 162 161 159 161 154 140 164 331 339 336 341 344 346 348 349 349 349 347 345 343 341 340 338 336 336 334 332 331 330 328 326 326 325 323 322 321 319 318 315 312 313 311 308 303 297 296 297 298 294 288 286
265 237 154 150 184 154 169 250 215 188 234 284 240 218 220 207 222 261 329 360 341 310 284 248 291 287 198 182 190 168 156 163 159 155 160 168 167 164 165 162 153 176 285 322 332 340 344 345 345 345 347 347 347 345 341 339 338 337 337 336 333 331 331 331 331 330 329 327 326 325 324 324 323 319 315 314 312 310 308 302 295 291 294 296 292 287
255 178 127 142 171 165 202 249 232 181 170 282 248 185 163 148 200 276 322 19 273 266 276 140 222 281 254 185 195 181 180 185 172 169 176 177 172 167 169 172 171 192 286 322 336 341 341 341 342 344 346 346 345 343 339 337 337 338 337 334 332 331 332 333 334 334 331 329 329 327 325 324 322 317 313 311 309 308 310 311 303 292 289 293 294 290
173 138 100 118 144 182 229 251 226 160 144 245 233 137 130 160 246 248 213 224 240 272 297 203 203 274 278 229 198 179 180 189 189 191 187 181 175 166 169 177 186 252 302 338 340 338 335 338 342 345 345 344 342 340 337 337 338 338 336 332 331 333 334 334 334 334 333 331 329 327 325 323 319 314 310 308 307 307 309 310 307 297 289 288 292 294
177 177 206 167 146 204 222 228 189 144 150 244 206 157 179 209 230 232 215 239 268 355 285 223 175 263 273 246 173 167 185 204 198 194 190 180 173 166 168 178 198 216 277 341 335 330 333 339 344 345 343 341 340 338 336 337 338 337 335 333 333 335 335 334 335 335 334 332 329 326 324 320 316 312 309 308 307 306 308 308 307 301 291 287 288 292
238 191 187 154 160 221 223 218 169 147 194 238 190 202 246 235 237 226 219 247 23 340 261 219 167 222 265 234 142 164 209 216 199 188 186 177 171 167 170 181 196 190 249 336 327 328 335 342 345 344 342 340 338 337 336 337 339 337 336 335 335 336 335 334 335 335 334 333 331 328 324 320 316 312 311 311 309 306 307 308 309 306 298 292 289 288
256 136 149 149 184 198 174 188 177 163 192 181 56 333 327 299 272 160 196 70 63 263 261 223 187 201 268 245 164 185 223 197 177 174 182 178 170 168 173 184 189 194 256 324 324 329 338 344 346 343 340 338 336 335 336 337 338 337 337 337 336 336 335 334 334 335 335 334 332 329 326 321 317 315 313 312 312 311 308 306 307 307 302 297 294 291
360 141 224 186 178 140 112 143 285 50 78 69 61 34 351 314 351 33 3 52 115 257 265 241 207 196 238 247 196 226 243 169 168 173 176 175 170 169 175 187 188 204 271 316 322 335 345 346 345 340 337 335 333 333 335 336 337 337 338 338 336 337 337 335 335 336 335 334 332 330 328 325 320 316 314 312 312 312 308 306 306 308 306 301 297 292
299 239 253 77 164 156 123 78 335 5 51 80 81 62 16 329 353 355 311 168 220 249 241 201 159 213 236 250 215 220 222 166 166 166 163 163 166 169 175 185 188 208 271 313 334 347 349 345 340 336 334 333 331 333 334 335 336 337 338 338 336 337 337 337 337 336 336 334 332 331 330 327 323 318 315 312 312 311 308 306 306 307 308 304 298 291
301 297 289 88 255 186 154 149 236 275 122 138 133 116 124 7 333 289 262 265 273 270 244 195 3 274 260 277 230 200 171 150 148 151 156 157 161 168 174 179 184 204 279 333 350 353 347 339 334 333 333 332 330 332 333 334 336 336 337 337 336 336 337 337 338 337 335 334 332 332 331 328 324 320 317 313 309 308 307 305 304 306 306 305 301 293
252 304 245 183 218 174 169 181 173 148 143 187 164 134 152 157 214 256 231 248 280 289 263 227 273 237 208 294 265 160 137 138 141 145 151 154 161 168 171 176 184 215 340 353 354 350 340 333 332 332 332 331 329 331 332 333 335 336 337 337 335 336 337 336 337 336 334 334 332 331 331 329 325 321 317 313 309 307 306 305 304 304 303 303 303 298
208 260 242 217 109 146 172 213 147 110 97 244 132 113 184 178 180 233 207 199 284 304 273 204 222 222 190 321 5 127 133 138 144 150 151 157 165 167 171 175 174 350 355 356 350 342 333 329 331 333 332 330 329 330 332 333 335 336 336 336 335 335 335 335 334 334 332 332 331 331 331 330 327 323 319 315 311 308 306 306 303 302 301 301 302 300
240 268 266 26 20 123 152 218 136 107 162 205 138 176 227 170 141 215 261 5 44 297 269 199 244 275 351 303 178 140 148 152 155 161 160 166 169 167 172 170 136 1 354 349 343 334 328 329 332 333 332 329 329 330 332 334 335 335 335 335 335 334 334 334 334 333 331 330 330 331 331 331 329 326 322 318 313 310 306 303 302 300 301 301 301 300
222 275 253 144 222 239 151 56 25 31 123 142 182 217 206 120 100 130 274 343 49 268 268 196 242 258 175 226 213 175 179 180 183 177 170 171 169 169 170 160 88 354 346 338 335 328 327 331 333 333 331 327 327 330 332 335 335 335 335 334 333 333 332 333 333 332 330 328 329 330 330 330 330 328 324 320 316 312 307 303 301 301 301 302 301 300
134 278 272 175 201 245 29 42 347 350 87 133 202 240 122 167 236 130 155 256 224 269 274 229 245 239 196 191 194 195 196 190 192 184 176 181 174 171 169 159 209 332 332 331 331 327 328 332 333 333 330 326 328 331 334 335 334 334 335 334 333 332 331 330 330 330 328 327 328 328 329 329 329 328 326 323 318 315 311 306 303 302 302 301 300 300
114 234 271 285 251 266 42 88 203 218 49 68 32 334 81 193 218 161 163 189 198 262 273 291 297 252 200 187 185 196 198 186 185 183 182 190 180 172 170 171 200 310 328 332 330 327 329 332 333 331 328 327 330 333 335 334 334 335 335 334 333 332 331 329 329 329 329 329 329 329 329 329 328 327 327 324 320 316 313 310 305 303 303 302 300 297
100 197 248 316 325 242 186 200 196 189 171 139 168 201 198 187 170 230 229 158 185 244 256 292 286 257 194 185 186 190 192 182 179 181 186 188 177 172 173 177 204 315 329 331 328 328 330 332 332 328 327 329 332 334 335 334 334 335 335 334 333 332 331 330 330 331 331 331 331 330 330 330 329 327 327 325 321 316 314 313 308 303 303 301 298 294
150 194 223 246 236 223 227 223 200 188 181 179 185 188 196 192 153 247 254 195 189 233 201 237 271 262 198 179 182 174 180 181 175 174 182 179 172 172 177 178 236 316 327 331 329 330 332 332 331 327 328 331 333 334 336 335 334 334 335 335 333 331 330 329 329 331 332 331 332 332 331 330 329 328 327 325 322 318 315 314 310 305 302 299 296 295
145 144 222 250 238 231 260 289 116 159 168 187 211 192 184 183 172 206 239 224 188 231 191 230 266 273 178 158 172 164 167 172 173 172 171 173 173 174 176 178 274 315 327 333 332 332 334 333 330 328 330 333 334 335 335 335 334 334 335 335 333 331 330 330 330 331 332 332 332 331 330 330 329 329 328 327 323 319 317 315 313 307 302 300 297 295
131 133 221 265 281 287 341 15 37 43 66 237 241 192 182 204 201 208 230 177 154 216 192 230 258 267 291 157 163 156 159 165 174 175 170 171 173 171 173 186 285 316 331 335 335 336 336 334 330 328 331 333 334 335 335 335 334 334 335 335 333 331 331 331 331 332 332 333 332 332 332 330 330 329 330 328 324 320 317 315 314 309 303 299 296 294
179 182 166 265 302 295 290 329 346 360 171 227 232 185 201 216 203 225 263 95 236 233 210 229 257 254 226 154 158 153 163 171 173 174 172 171 170 171 178 196 271 324 338 339 338 339 336 332 329 328 331 333 333 334 335 335 334 334 335 335 333 332 331 332 332 332 332 333 332 333 333 333 332 329 328 328 325 321 318 315 314 311 305 300 296 293
177 199 169 201 270 268 273 285 277 211 202 223 220 197 205 201 188 204 221 169 232 236 211 220 248 251 195 156 186 183 181 183 166 163 169 172 173 176 183 200 298 337 342 341 340 338 334 329 328 329 331 332 332 333 335 334 334 334 334 335 334 332 331 332 332 331 332 333 332 332 333 334 334 330 327 328 327 323 319 315 313 312 309 305 301 299
146 256 204 212 234 243 257 267 195 118 188 221 208 204 202 195 197 201 188 210 223 228 234 234 237 249 253 211 195 199 195 195 178 163 168 174 178 180 180 224 332 342 341 340 340 336 331 328 328 329 331 331 332 334 335 334 334 334 334 335 334 332 331 332 332 332 333 333 333 333 334 333 331 329 328 328 327 323 318 315 316 316 313 306 300 295
107 248 221 220 233 242 255 263 236 138 234 247 231 209 200 199 204 205 213 224 203 124 254 249 230 238 253 240 211 211 207 203 188 176 180 180 180 179 175 295 331 340 339 339 339 333 330 328 327 329 330 331 332 334 335 335 334 334 334 334 334 332 333 332 332 333 334 334 336 337 338 336 334 332 330 327 327 325 319 316 316 315 310 303 298 294
131 246 231 217 237 249 256 264 262 248 256 262 250 215 205 208 207 212 224 228 208 202 248 256 242 235 248 246 226 216 207 205 193 186 190 187 176 176 194 309 331 338 337 338 336 332 328 326 326 328 330 331 333 335 335 334 333 333 334 335 334 333 333 333 332 333 334 336 338 339 338 335 332 330 328 326 326 326 320 314 313 312 308 304 301 298
146 249 238 207 246 260 258 256 260 256 260 265 256 226 217 223 216 218 230 233 227 232 248 259 263 259 257 249 239 222 201 197 190 181 182 177 172 178 218 315 331 335 335 337 333 327 323 323 325 328 330 332 334 335 335 334 333 333 334 335 335 334 334 334 333 333 335 338 340 339 337 335 334 334 334 332 329 326 322 319 317 313 310 307 302 299
202 237 194 153 250 269 262 246 243 245 251 261 259 236 223 233 232 228 234 236 233 240 248 254 262 267 264 253 245 221 188 176 171 172 174 174 175 177 236 314 329 334 334 333 326 321 321 322 326 329 330 332 334 335 335 333 332 332 334 335 335 334 334 334 334 335 337 340 341 339 338 338 336 333 331 330 329 325 321 322 321 315 310 309 306 301
212 227 75 114 234 264 266 223 237 253 265 266 263 247 225 229 235 231 232 231 226 233 247 251 252 257 260 245 200 191 169 161 170 173 168 170 177 184 261 312 330 334 329 323 317 318 321 323 327 330 331 333 334 335 334 332 331 332 334 335 336 335 335 335 335 336 338 340 342 341 338 336 334 332 331 333 334 331 326 325 324 319 315 313 310 305
181 199 184 150 216 269 32 107 131 39 299 268 261 236 215 221 232 235 240 238 228 223 238 242 239 247 249 140 155 177 165 170 179 172 169 171 176 195 282 316 329 324 318 315 314 318 321 324 328 331 332 335 334 333 333 331 331 332 334 335 336 335 336 336 336 337 339 341 342 341 339 338 336 334 332 331 332 332 331 329 325 321 317 314 310 306
186 199 206 172 186 252 136 113 94 17 261 265 281 190 199 209 220 228 236 240 231 218 228 241 247 254 246 180 183 185 181 184 179 173 175 176 177 198 258 304 319 311 308 310 314 319 322 326 330 332 334 335 332 331 332 331 331 332 333 335 336 336 337 337 337 339 340 341 343 342 341 339 335 333 332 332 331 330 329 328 325 321 318 316 313 308
186 196 201 176 165 189 131 89 127 234 247 255 66 129 196 203 210 221 236 244 237 224 232 244 250 251 244 218 196 184 178 174 169 170 174 179 192 198 186 203 279 296 304 311 316 321 325 328 332 334 334 333 331 331 331 332 333 333 334 336 337 337 338 338 339 341 342 342 344 343 341 339 337 338 340 339 336 332 329 327 324 320 319 318 315 311
181 187 186 170 170 166 139 177 210 255 297 295 253 160 149 188 202 212 246 254 240 225 232 240 245 249 246 209 174 168 160 152 153 166 176 187 200 176 155 187 260 294 306 313 318 322 327 330 332 332 332 332 331 331 332 333 334 334 335 338 338 338 339 339 341 343 343 343 344 344 343 342 341 341 341 340 337 335 332 330 325 321 321 320 315 311
179 183 178 181 202 187 185 216 238 304 310 295 268 176 158 190 182 175 247 264 234 207 224 235 240 245 232 153 145 147 144 139 143 171 179 182 179 159 160 205 288 303 309 315 320 323 327 328 329 331 331 331 331 332 333 334 334 335 336 338 339 339 340 341 343 344 344 344 345 345 346 345 343 341 342 341 339 336 334 331 327 324 323 320 316 313
188 190 176 187 214 190 192 240 265 280 278 276 266 189 184 176 152 141 251 277 218 185 211 228 229 223 176 135 143 141 138 147 204 192 176 172 171 167 173 260 296 305 309 313 318 323 325 326 329 332 332 331 332 333 335 335 335 336 338 339 340 340 341 342 344 345 345 345 346 347 348 346 344 344 343 342 340 337 335 333 328 325 323 320 317 314
193 203 177 198 223 191 194 229 232 244 255 234 110 212 145 131 117 89 340 279 227 185 205 218 216 191 154 151 158 147 142 186 236 198 177 174 176 179 202 279 294 302 306 310 316 321 323 327 330 333 333 333 334 335 336 336 337 338 339 340 341 342 343 344 344 345 346 346 347 349 349 348 347 346 344 342 340 338 335 334 332 330 327 322 318 316
184 190 177 214 225 206 204 227 233 250 255 182 140 154 129 128 119 84 302 269 242 182 202 204 191 174 162 159 160 157 177 211 221 193 176 175 181 193 227 276 286 290 298 307 315 318 322 327 329 333 337 337 336 338 337 337 338 340 340 341 342 343 345 345 345 346 347 347 348 350 351 350 348 347 346 343 339 337 337 337 335 333 331 328 324 320
192 192 192 216 229 217 212 227 250 266 248 170 153 152 136 124 115 176 245 229 153 174 198 190 179 174 166 164 169 183 202 203 189 168 167 175 191 208 242 269 272 281 294 304 311 315 321 327 329 334 340 339 338 339 338 338 340 341 342 343 343 344 345 345 345 347 348 349 350 352 353 351 349 348 347 343 339 338 340 340 338 336 336 333 330 327
179 174 207 224 224 216 222 231 267 278 237 161 154 154 143 131 240 238 193 139 149 173 189 187 185 178 173 177 184 186 179 166 160 161 170 185 203 219 244 259 261 279 294 301 308 315 321 326 330 336 340 340 339 340 340 339 340 342 343 344 345 345 346 347 347 348 349 350 352 354 354 353 352 351 349 346 344 343 344 346 347 346 343 339 335 333
166 153 201 218 191 176 223 204 232 274 200 150 146 150 160 186 224 155 129 129 163 174 181 187 188 184 181 184 184 178 169 163 166 173 182 194 208 222 238 249 254 271 289 298 306 315 321 326 331 338 341 341 341 342 343 341 341 343 345 345 346 346 347 348 349 349 350 351 354 356 356 356 355 353 351 350 349 349 351 352 353 353 353 351 346 340
169 171 193 211 175 154 193 199 208 274 164 156 156 170 197 200 173 133 141 163 174 177 182 183 186 189 189 186 179 175 174 173 178 187 193 202 214 224 233 244 255 268 285 298 306 316 324 326 331 339 343 343 343 345 346 343 342 344 346 346 347 348 349 350 350 350 351 353 356 357 358 358 358 356 353 353 354 355 356 358 358 357 359 360 353 344
199 191 175 193 185 179 217 219 199 121 164 174 180 189 188 192 184 156 167 175 175 183 187 183 184 189 190 188 184 183 186 190 194 200 203 207 215 221 228 239 252 266 283 296 306 316 324 327 332 339 344 345 345 347 348 346 345 345 346 348 349 350 351 351 351 352 353 354 358 359 359 360 0 358 357 357 357 358 0 2 3 2 3 3 357 349
214 195 134 57 195 221 271 252 199 145 173 186 196 206 190 190 191 186 185 183 182 189 191 189 190 187 184 188 192 195 202 204 203 206 207 207 214 219 223 234 246 262 281 293 307 317 323 328 333 338 343 346 347 348 350 349 348 347 347 349 350 351 353 353 352 353 354 356 359 2 1 1 1 360 359 359 359 360 3 7 8 6 5 4 360 356
222 189 192 220 174 185 257 242 192 179 186 190 197 206 201 198 199 198 197 195 194 197 196 194 193 187 186 193 199 201 206 205 203 206 207 207 214 217 219 231 243 258 277 293 308 319 324 328 333 339 344 347 349 350 351 352 351 349 349 350 351 352 354 355 354 355 356 358 1 3 4 3 2 1 1 1 1 2 5 10 13 10 6 4 2 360
188 168 188 222 210 201 236 252 159 183 194 194 197 200 198 202 205 202 201 203 205 205 200 193 189 188 191 199 203 202 203 203 204 207 207 208 213 215 218 227 240 257 277 295 311 320 324 329 335 341 345 347 350 352 353 353 353 351 351 352 353 353 354 356 357 357 358 0 3 5 6 5 4 3 2 1 2 5 8 13 14 12 10 9 4 358
139 155 181 206 209 226 247 234 122 159 206 204 202 203 203 206 207 201 200 205 208 204 197 190 190 194 197 201 203 202 201 204 206 207 208 209 210 212 218 227 240 259 278 297 313 320 324 330 337 342 345 347 350 352 353 355 354 353 352 354 355 355 355 357 358 359 0 2 4 7 9 7 6 7 5 2 2 4 8 15 18 15 13 16 14 5
144 187 192 164 193 227 235 202 164 168 229 209 201 205 206 207 206 200 197 201 203 200 195 189 191 197 202 204 205 203 203 206 207 207 208 210 210 213 221 231 244 261 281 302 314 319 325 331 337 342 344 347 350 352 354 356 355 353 354 356 356 357 357 357 358 0 2 4 7 9 11 10 9 9 9 8 5 1 2 10 21 25 22 19 21 21
194 210 193 181 211 230 219 190 184 194 225 196 195 204 206 204 203 200 198 201 203 201 198 195 194 196 200 203 205 206 207 210 210 209 208 209 211 217 225 234 245 263 286 302 311 319 326 331 336 341 345 347 350 353 355 356 355 355 356 357 358 360 359 359 360 2 3 6 9 12 12 13 12 11 12 13 10 6 4 5 12 26 34 31 27 27